TimeCDT,TemperatureF,Dew PointF,Humidity,Sea Level PressureIn,VisibilityMPH,Wind Direction,Wind SpeedMPH,Gust SpeedMPH,PrecipitationIn,Events,Conditions,WindDirDegrees,DateUTC
12:15 AM,39.2,33.8,81,29.76,10.0,WNW,10.4,-,N/A,,Overcast,300,2013-03-10 06:15:00
12:35 AM,39.2,32.0,75,29.77,10.0,WNW,15.0,-,N/A,,Overcast,300,2013-03-10 06:35:00
12:55 AM,39.2,32.0,75,29.78,10.0,WNW,11.5,-,N/A,,Overcast,300,2013-03-10 06:55:00
1:15 AM,37.4,33.8,87,29.79,10.0,WNW,15.0,-,N/A,,Overcast,300,2013-03-10 07:15:00
1:35 AM,37.4,33.8,87,29.78,5.0,WNW,11.5,20.7,N/A,,Overcast,300,2013-03-10 07:35:00
1:55 AM,37.4,33.8,87,29.78,10.0,NW,17.3,20.7,N/A,,Overcast,310,2013-03-10 07:55:00
3:15 AM,37.4,33.8,87,29.80,10.0,NW,17.3,21.9,N/A,,Overcast,310,2013-03-10 08:15:00
3:35 AM,37.4,33.8,87,29.79,7.0,NW,16.1,23.0,N/A,,Overcast,310,2013-03-10 08:35:00
3:55 AM,35.6,32.0,87,29.78,10.0,NW,18.4,31.1,N/A,,Overcast,320,2013-03-10 08:55:00
4:15 AM,35.6,32.0,87,29.79,10.0,NW,27.6,36.8,N/A,,Overcast,320,2013-03-10 09:15:00
4:35 AM,35.6,32.0,87,29.79,10.0,NNW,29.9,42.6,N/A,,Overcast,330,2013-03-10 09:35:00
4:55 AM,35.6,32.0,87,29.80,10.0,NW,21.9,28.8,N/A,,Overcast,320,2013-03-10 09:55:00
5:15 AM,35.6,30.2,81,29.81,10.0,NNW,26.5,36.8,N/A,,Overcast,340,2013-03-10 10:15:00
5:35 AM,35.6,30.2,81,29.82,10.0,NNW,20.7,28.8,N/A,,Overcast,340,2013-03-10 10:35:00
5:55 AM,35.6,30.2,81,29.82,10.0,NNW,31.1,39.1,N/A,,Overcast,340,2013-03-10 10:55:00
6:15 AM,35.6,28.4,75,29.83,10.0,NNW,25.3,40.3,N/A,,Overcast,340,2013-03-10 11:15:00
6:35 AM,35.6,30.2,81,29.84,10.0,NNW,25.3,35.7,N/A,,Overcast,340,2013-03-10 11:35:00
7:15 AM,35.6,30.2,81,29.86,10.0,NNW,27.6,41.4,N/A,,Overcast,330,2013-03-10 12:15:00
7:35 AM,35.6,30.2,81,29.87,10.0,NNW,23.0,35.7,N/A,,Overcast,330,2013-03-10 12:35:00
7:55 AM,35.6,30.2,81,29.89,10.0,NW,25.3,38.0,N/A,,Overcast,320,2013-03-10 12:55:00
8:15 AM,35.6,28.4,75,29.90,10.0,NNW,28.8,41.4,N/A,,Overcast,330,2013-03-10 13:15:00
8:35 AM,33.8,28.4,81,29.92,10.0,North,31.1,43.7,N/A,,Overcast,350,2013-03-10 13:35:00
8:55 AM,33.8,28.4,81,29.94,10.0,NNW,33.4,42.6,N/A,,Overcast,340,2013-03-10 13:55:00
9:15 AM,33.8,28.4,81,29.95,10.0,NNW,25.3,39.1,N/A,,Overcast,330,2013-03-10 14:15:00
9:35 AM,33.8,26.6,75,29.97,10.0,NNW,32.2,39.1,N/A,,Overcast,340,2013-03-10 14:35:00
9:55 AM,33.8,26.6,75,29.97,10.0,NNW,34.5,42.6,N/A,,Overcast,340,2013-03-10 14:55:00
10:15 AM,33.8,26.6,75,29.98,10.0,NNW,33.4,42.6,N/A,,Overcast,340,2013-03-10 15:15:00
10:35 AM,33.8,26.6,75,29.99,10.0,NNW,28.8,40.3,N/A,,Overcast,330,2013-03-10 15:35:00
10:55 AM,33.8,24.8,70,29.99,10.0,NNW,29.9,42.6,N/A,,Overcast,340,2013-03-10 15:55:00
11:15 AM,33.8,23.0,65,30.00,10.0,NNW,28.8,39.1,N/A,,Overcast,330,2013-03-10 16:15:00
11:35 AM,35.6,23.0,60,30.01,10.0,NNW,31.1,39.1,N/A,,Overcast,330,2013-03-10 16:35:00
11:55 AM,35.6,23.0,60,30.01,10.0,NNW,28.8,40.3,N/A,,Overcast,330,2013-03-10 16:55:00
12:35 PM,37.4,23.0,56,30.01,10.0,NW,26.5,34.5,N/A,,Overcast,320,2013-03-10 17:35:00
12:55 PM,37.4,23.0,56,30.01,10.0,NW,25.3,36.8,N/A,,Overcast,320,2013-03-10 17:55:00
1:15 PM,37.4,24.8,60,30.01,10.0,NNW,24.2,34.5,N/A,,Overcast,330,2013-03-10 18:15:00
1:35 PM,41.0,24.8,53,30.01,10.0,NW,26.5,36.8,N/A,,Mostly Cloudy,320,2013-03-10 18:35:00
1:55 PM,39.2,24.8,56,30.01,10.0,NW,24.2,33.4,N/A,,Overcast,320,2013-03-10 18:55:00
2:15 PM,39.2,24.8,56,30.00,10.0,NNW,26.5,33.4,N/A,,Overcast,330,2013-03-10 19:15:00
2:35 PM,41.0,24.8,53,30.00,10.0,NNW,24.2,34.5,N/A,,Overcast,330,2013-03-10 19:35:00
2:55 PM,39.2,23.0,52,29.99,10.0,NNW,27.6,34.5,N/A,,Overcast,340,2013-03-10 19:55:00
3:15 PM,41.0,23.0,49,29.99,10.0,NW,21.9,36.8,N/A,,Overcast,320,2013-03-10 20:15:00
3:35 PM,41.0,23.0,49,29.99,10.0,NNW,19.6,32.2,N/A,,Overcast,330,2013-03-10 20:35:00
3:55 PM,42.8,23.0,46,30.00,10.0,NW,24.2,32.2,N/A,,Overcast,310,2013-03-10 20:55:00
4:15 PM,41.0,23.0,49,30.01,10.0,NW,20.7,28.8,N/A,,Overcast,320,2013-03-10 21:15:00
4:35 PM,41.0,23.0,49,30.01,10.0,NNW,16.1,27.6,N/A,,Overcast,340,2013-03-10 21:35:00
4:55 PM,41.0,23.0,49,30.02,10.0,NNW,17.3,26.5,N/A,,Overcast,340,2013-03-10 21:55:00
5:15 PM,41.0,23.0,49,30.02,10.0,NNW,18.4,25.3,N/A,,Overcast,330,2013-03-10 22:15:00
5:35 PM,41.0,23.0,49,30.02,10.0,NNW,18.4,26.5,N/A,,Overcast,330,2013-03-10 22:35:00
5:55 PM,41.0,23.0,49,30.02,10.0,NNW,17.3,25.3,N/A,,Overcast,340,2013-03-10 22:55:00
6:15 PM,39.2,23.0,52,30.02,10.0,NNW,17.3,24.2,N/A,,Overcast,330,2013-03-10 23:15:00
6:35 PM,39.2,23.0,52,30.03,10.0,NNW,17.3,26.5,N/A,,Overcast,340,2013-03-10 23:35:00
6:55 PM,37.4,23.0,56,30.03,10.0,North,19.6,24.2,N/A,,Overcast,350,2013-03-10 23:55:00
7:15 PM,37.4,21.2,52,30.03,10.0,NNW,17.3,23.0,N/A,,Overcast,330,2013-03-11 00:15:00
7:35 PM,37.4,21.2,52,30.05,10.0,NNW,15.0,23.0,N/A,,Mostly Cloudy,330,2013-03-11 00:35:00
7:55 PM,35.6,23.0,60,30.05,10.0,NNW,12.7,19.6,N/A,,Overcast,340,2013-03-11 00:55:00
8:15 PM,35.6,21.2,56,30.05,10.0,NNW,11.5,17.3,N/A,,Scattered Clouds,330,2013-03-11 01:15:00
8:35 PM,33.8,23.0,65,30.07,10.0,NNW,11.5,-,N/A,,Clear,330,2013-03-11 01:35:00
9:15 PM,33.8,23.0,65,30.08,10.0,NNW,9.2,-,N/A,,Clear,330,2013-03-11 02:15:00
9:35 PM,32.0,23.0,69,30.09,10.0,NW,9.2,-,N/A,,Clear,320,2013-03-11 02:35:00
9:55 PM,32.0,23.0,69,30.10,10.0,NW,8.1,-,N/A,,Clear,320,2013-03-11 02:55:00
10:15 PM,32.0,23.0,69,30.10,10.0,NW,6.9,-,N/A,,Clear,310,2013-03-11 03:15:00
10:35 PM,32.0,21.2,64,30.11,10.0,NW,9.2,-,N/A,,Clear,310,2013-03-11 03:35:00
10:55 PM,32.0,21.2,64,30.11,10.0,NW,9.2,-,N/A,,Clear,310,2013-03-11 03:55:00
11:15 PM,32.0,21.2,64,30.11,10.0,NW,10.4,-,N/A,,Clear,310,2013-03-11 04:15:00
11:35 PM,32.0,21.2,64,30.11,10.0,NW,10.4,-,N/A,,Clear,310,2013-03-11 04:35:00
12:15 AM,30.2,19.4,64,30.11,10.0,WNW,8.1,-,N/A,,Clear,290,2013-03-11 05:15:00
12:35 AM,30.2,19.4,64,30.10,10.0,WNW,8.1,-,N/A,,Clear,300,2013-03-11 05:35:00
12:55 AM,30.2,19.4,64,30.10,10.0,NW,9.2,-,N/A,,Clear,310,2013-03-11 05:55:00